World > North America > United States > Mississippi > Trebloc  

Trebloc, MS Hourly Weather Updates

Feedback E-mail the Weather

Quick Clicks

Trebloc, MS Weather Maps

°F °C°F °C
Trebloc Weather Map
UTC Time: 5/23/2024, 05:27
Your Time:

Trebloc, MS Regional Weather

Expires:202405230600;;701342
ASUS44 KJAN 230510
RWRMS 

MISSISSIPPI HOURLY WEATHER ROUNDUP
NATIONAL WEATHER SERVICE JACKSON MS
1200 AM CDT THU MAY 23 2024

NOTE: "FAIR: INDICATES FEW OR NO CLOUDS BELOW 12,000 FEET WITH NO
SIGNIFICANT WEATHER AND/OR OBSTRUCTIONS TO VISIBILITY.


MSZ003>006-009-014>017-022>024-029>033-037>039-230600-
NORTHEAST MISSISSIPPI
  
CITY           SKY/WX    TMP DP  RH WIND       PRES   REMARKS
ABERDEEN       CLOUDY    72  72 100 S5        29.98F                  
COLUMBUS AFB   CLOUDY    76  69  77 CALM      29.93F                  
CORINTH        CLOUDY    73  68  83 CALM      29.93F                  
GOLDN TRIANGLE CLOUDY    75  70  84 SW5       29.98F                  
IUKA             N/A     72  71  98 E3        29.95S                  
LOUISVILLE     CLOUDY    77  68  73 SW5       30.03S                  
STARKVILLE     CLOUDY    75  72  88 CALM      29.97S                  
TUPELO         CLOUDY    75  69  81 S6        29.93R                  
$$


SKY/WX - Weather  TMP - Temperature  DP - Dew Point  RH - Humidity
WIND - Wind Direction/Speed PRES - Barometric Pressure VSB - Visibility
WCI - Wind Chill Index E13G22 Wind - East Wind 13 mph/Gusts of 22 mph

Trending Headlines

Trending Entertainment Headlines

Trebloc Radar Loop

Use the map search tool if you want to place a location marker on the radar map...

Trebloc Quick Facts

National Two Day Weather Forecast


E-mail the Trebloc Weather Forecast

Voice your opinion or tell us about page issues...